If you wish to contribute or participate in the discussions about articles you are invited to join SKYbrary as a registered user

 Actions

Adana Şakirpaşa Airport

From SKYbrary Wiki

LTAF
Airport
ICAO: LTAF – IATA: ADA
Summary
Name Adana Şakirpaşa Airport
Region Europe
Territory Turkey TR.gif
Location Adana, Adana
Serving Adana
Elevation 19.812 m
65 ft
65 ft19.812 m
Coordinates 36° 58' 57.00" N, 35° 16' 59.00" E
Runways
Designator Length Width Surface ROPS
5/23 2750 m9,022.31 ft
45 m147.638 ft
ASP yes/yes


METAR
Observation LTAF 160350Z 02008KT CAVOK 11/06 Q1021 NOSIG
Station Adana / Sakirpasa
Date/Time 16 December 2018 03:50:00
Wind direction 20°
Wind speed 08 kts
Lowest cloud amount clouds and visibility OK
Temperature 11°C
Dew point 6°C
Humidity 71%
QNH 1021 hPa
Weather condition n/a

GND
Tag(s) Foreign Object Debris

Adana Şakirpaşa Airport

ICAO: LTAF IATA: ADA

Description

Military/Civil airport serving southern Turkey.

Climatology

Dry-summer subtropical ”Mediterranean" climate (Köppen climate classification Csa) - characterized by hot, dry summers and mild winters. During the summer, subtropical high pressure cells dominate, making rainfall unlikely except for the occasional thunderstorm. In the winter, periodic storms bring rain.

Maps

Terrain

Loading map...

Airport Layout

Loading map...


Accidents & Serious Incidents at or in vicinity of LTAF

None on SKYbrary